FW0827 Weather Reports


Display with metric or nautical units.
time (UTC)temp
F
wind
direction
speed
MPH
gust
MPH
rain 1hr
in
rain 24hr
in
rain mn
in
humidity
%
barometer
mb
20260507101231 49 315 0.0 0.0 0.00 0.23 0.23 99 1027.6
20260507101204 49 315 0.0 1.0 0.00 0.99 0.23 99 1010.9
20260507100728 49 287 0.0 0.0 0.00 0.23 0.23 99 1027.5
20260507100704 49 287 0.0 0.0 0.00 0.99 0.23 99 1010.8
20260507100227 48 287 0.0 0.0 0.00 0.23 0.23 99 1027.7
20260507100205 48 287 0.0 0.0 0.00 0.99 0.23 99 1011.0
20260507095724 48 287 0.0 0.0 0.00 0.23 0.23 99 1027.3
20260507095703 48 287 0.0 0.0 0.00 0.99 0.23 99 1010.8
20260507095221 48 307 0.0 0.0 0.00 0.23 0.23 99 1027.3
20260507095204 48 307 0.0 0.0 0.00 0.99 0.23 99 1010.8
20260507094718 48 307 0.0 0.0 0.00 0.23 0.23 99 1027.2
20260507094704 48 307 0.0 0.0 0.00 0.99 0.23 99 1010.7
20260507094215 48 307 0.0 0.0 0.00 0.23 0.23 99 1027.3
20260507094205 48 307 0.0 0.0 0.00 0.99 0.23 99 1010.6
20260507093711 48 307 0.0 0.0 0.00 0.23 0.23 99 1027.2
20260507093705 48 305 0.0 0.0 0.00 0.99 0.23 99 1010.5
20260507093210 48 315 0.0 0.0 0.00 0.23 0.23 99 1027.2
20260507093203 48 317 0.0 5.0 0.00 0.99 0.23 99 1010.4
20260507092707 48 331 0.0 5.0 0.00 0.23 0.23 99 1027.0
20260507092704 48 306 0.0 5.0 0.00 0.99 0.23 99 1010.3
20260507092204 48 309 0.0 0.0 0.00 0.99 0.23 99 1010.4
20260507091705 48 321 0.0 0.0 0.00 0.99 0.23 99 1010.3
20260507091700 48 321 0.0 0.0 0.00 0.23 0.23 99 1026.9
20260507091205 49 297 0.0 0.0 0.00 0.99 0.23 99 1010.5
20260507091156 48 297 0.0 0.0 0.00 0.23 0.23 99 1027.2
20260507090652 48 338 0.0 0.0 0.00 0.23 0.23 99 1027.1
20260507090149 48 338 0.0 0.0 0.00 0.23 0.23 99 1027.2
20260507085646 48 338 0.0 0.0 0.00 0.23 0.23 99 1026.8
20260507085203 48 338 0.0 0.0 0.00 0.99 0.23 99 1010.1
20260507085143 48 338 0.0 0.0 0.00 0.23 0.23 99 1026.9
20260507084704 48 338 0.0 0.0 0.00 0.99 0.23 99 1010.1
20260507084640 48 338 0.0 0.0 0.00 0.23 0.23 99 1026.8
20260507084205 48 338 0.0 0.0 0.00 0.99 0.23 99 1010.2
20260507084136 48 338 0.0 0.0 0.00 0.23 0.23 99 1026.8
20260507083704 48 338 0.0 0.0 0.00 0.99 0.23 99 1010.2
20260507083633 48 338 0.0 0.0 0.00 0.23 0.23 99 1026.9
20260507083205 49 338 0.0 0.0 0.00 0.99 0.23 99 1010.3
20260507083130 49 338 0.0 0.0 0.00 0.23 0.23 99 1026.9
20260507082704 49 338 0.0 0.0 0.00 0.99 0.23 99 1010.4
20260507082625 49 338 0.0 0.0 0.00 0.23 0.23 99 1027.0
20260507082204 49 338 0.0 0.0 0.00 0.99 0.23 99 1010.3
20260507082122 49 338 0.0 0.0 0.00 0.23 0.23 99 1027.0
20260507081704 49 338 0.0 0.0 0.00 0.99 0.23 99 1010.0
20260507081619 49 338 0.0 0.0 0.00 0.23 0.23 99 1026.6
20260507081204 49 338 0.0 0.0 0.00 0.99 0.23 99 1010.2
20260507081115 49 338 0.0 0.0 0.00 0.23 0.23 99 1026.9
20260507080612 49 338 0.0 0.0 0.00 0.23 0.23 99 1027.0
20260507080204 49 338 0.0 0.0 0.00 0.99 0.23 99 1010.2
20260507080109 49 338 0.0 0.0 0.00 0.23 0.23 99 1026.9
20260507075704 49 338 0.0 0.0 0.00 0.99 0.23 99 1010.4
20260507075603 49 338 0.0 0.0 0.00 0.23 0.23 99 1027.0
20260507075204 49 338 0.0 0.0 0.00 0.99 0.23 99 1010.4
20260507075100 49 338 0.0 0.0 0.00 0.23 0.23 99 1027.1
20260507074705 49 338 0.0 0.0 0.01 0.99 0.23 99 1010.5
20260507074557 49 338 0.0 0.0 0.00 0.23 0.23 99 1027.1
20260507074203 49 338 0.0 0.0 0.01 0.99 0.23 99 1010.3
20260507074055 49 338 0.0 0.0 0.00 0.23 0.23 99 1027.0
20260507073550 49 338 0.0 0.0 0.00 0.23 0.23 99 1027.2
20260507073203 49 338 0.0 0.0 0.04 0.99 0.23 99 1010.5
20260507073047 49 338 0.0 0.0 0.00 0.23 0.23 99 1027.2
20260507072703 49 338 0.0 0.0 0.05 0.99 0.23 99 1010.7
20260507072545 49 338 0.0 0.0 0.00 0.23 0.23 99 1027.4
20260507072203 49 338 0.0 0.0 0.07 0.99 0.23 99 1010.7
20260507072042 49 338 0.0 0.0 0.00 0.23 0.23 99 1027.5
20260507071703 49 338 0.0 0.0 0.07 0.99 0.23 99 1010.8
20260507071539 49 338 0.0 0.0 0.00 0.23 0.23 99 1027.4
20260507071035 49 338 0.0 0.0 0.00 0.23 0.23 99 1027.5
20260507070532 50 338 0.0 0.0 0.00 0.23 0.23 99 1027.3
20260507070024 50 338 0.0 0.0 0.00 0.23 0.23 99 1027.4
20260507065703 49 338 0.0 0.0 0.07 0.99 0.23 99 1010.9
20260507065520 49 338 0.0 0.0 0.05 0.23 0.23 99 1027.5
20260507065018 50 338 0.0 0.0 0.05 0.23 0.23 99 1027.3
20260507064704 49 333 0.0 0.0 0.06 0.98 0.22 99 1011.1
20260507064516 50 328 0.0 0.0 0.12 0.22 0.22 99 1027.6
20260507064202 50 355 0.0 1.0 0.11 0.98 0.22 99 1010.8
20260507064014 50 354 0.0 0.0 0.24 0.22 0.22 99 1027.7
20260507063510 50 1 0.0 3.0 0.12 0.19 0.19 99 1027.6
20260507063204 50 309 0.0 8.0 0.11 0.95 0.19 99 1011.2
20260507063008 50 289 0.0 3.0 0.12 0.18 0.18 99 1027.9
20260507062703 50 354 4.0 8.0 0.10 0.95 0.18 99 1010.8
20260507062504 50 355 4.0 5.0 0.05 0.17 0.17 99 1027.5
20260507062204 50 350 1.0 8.0 0.08 0.93 0.16 99 1010.8
20260507062003 50 354 0.0 8.0 0.00 0.16 0.16 99 1027.6
20260507061500 50 338 3.0 7.0 0.00 0.16 0.16 99 1027.7
20260507061204 50 351 1.0 9.0 0.11 0.93 0.16 99 1010.7
20260507060958 50 345 1.0 10.0 0.00 0.16 0.16 99 1027.4
20260507060705 50 355 1.0 8.0 0.12 0.93 0.16 99 1011.0
20260507060455 50 326 0.0 5.0 0.00 0.16 0.16 99 1027.4
20260507060203 50 30 1.0 7.0 0.12 0.93 0.16 99 1010.6
20260507055951 51 314 0.0 3.0 0.00 0.16 0.16 99 1027.4
20260507055446 51 350 1.0 5.0 0.07 0.16 0.16 99 1027.4
20260507055203 51 355 1.0 8.0 0.15 0.93 0.16 99 1010.6
20260507054943 51 13 2.0 5.0 0.31 0.16 0.16 99 1027.2
20260507054703 51 3 0.0 7.0 0.16 0.93 0.16 99 1010.7
20260507054439 51 35 0.0 2.0 0.35 0.15 0.15 99 1027.1
20260507054203 51 345 2.0 7.0 0.11 0.87 0.11 99 1010.7
20260507053937 51 350 3.0 5.0 0.19 0.11 0.11 99 1027.3
20260507053705 51 0 1.0 5.0 0.10 0.86 0.10 99 1010.7
20260507053434 51 328 0.0 0.0 0.07 0.09 0.09 99 1027.6
20260507053204 51 4 3.0 8.0 0.08 0.84 0.08 99 1010.5
20260507052933 51 29 3.0 8.0 0.05 0.08 0.08 99 1026.9
20260507052703 51 339 0.0 7.0 0.08 0.84 0.08 99 1010.9
20260507052430 51 311 0.0 7.0 0.17 0.08 0.08 99 1027.6
20260507052204 51 5 1.0 5.0 0.08 0.84 0.08 99 1010.9
20260507051927 51 346 0.0 5.0 0.12 0.06 0.06 99 1027.5
20260507051704 51 326 0.0 8.0 0.06 0.82 0.06 99 1011.2
20260507051424 51 335 4.0 8.0 0.07 0.05 0.05 98 1027.7
20260507050921 52 302 0.0 3.0 0.05 0.04 0.04 98 1027.4
20260507050704 52 359 3.0 9.0 0.04 0.80 0.04 98 1010.5
20260507050418 52 339 1.0 7.0 0.12 0.04 0.04 97 1026.9
20260507045915 53 358 0.0 5.0 0.19 0.03 0.03 97 1026.6
20260507045411 53 355 1.0 8.0 0.12 0.02 0.02 96 1027.2
20260507044908 53 300 0.0 3.0 0.00 0.00 0.00 96 1027.2
20260507044704 53 326 1.0 13.0 0.38 0.76 0.00 95 1010.4
20260507044405 53 298 5.0 13.0 0.00 0.00 0.00 95 1026.5
20260507044204 53 357 1.0 8.0 0.38 0.76 0.00 95 1009.9
20260507043901 53 355 3.0 5.0 0.00 0.00 0.00 95 1026.8
20260507043357 54 344 3.0 10.0 0.00 0.00 0.00 94 1026.3
20260507043203 54 2 1.0 13.0 0.38 0.76 0.00 94 1009.7
20260507042853 54 338 3.0 5.0 0.00 0.00 0.00 94 1026.5
20260507042703 54 357 6.0 13.0 0.38 0.76 0.00 94 1010.0
20260507042349 54 31 5.0 7.0 0.00 0.00 0.00 94 1026.7
20260507041846 54 305 2.0 11.0 0.00 0.00 0.00 95 1026.7
20260507041704 54 3 5.0 13.0 0.38 0.76 0.00 95 1010.0
20260507041343 54 27 3.0 10.0 0.00 0.00 0.00 96 1026.5
20260507041203 55 18 3.0 12.0 0.38 0.76 0.00 96 1010.0
20260507040840 55 67 6.0 11.0 0.00 0.00 0.00 96 1026.7
20260507040336 56 15 2.0 5.0 0.00 0.00 0.00 97 1026.2
20260507040205 56 3 0.0 3.0 0.38 0.76 0.00 97 1009.3
20260507035832 56 7 0.0 2.0 0.00 0.38 0.38 97 1025.9
20260507035703 56 339 0.0 5.0 0.00 0.38 0.38 96 1009.7
20260507035328 56 319 0.0 0.0 0.00 0.38 0.38 97 1026.5
20260507035205 56 319 1.0 5.0 0.00 0.38 0.38 96 1009.9
20260507034826 56 322 0.0 3.0 0.00 0.38 0.38 96 1026.5
20260507034704 56 311 0.0 8.0 0.00 0.38 0.38 96 1010.3
20260507034322 56 307 0.0 7.0 0.00 0.38 0.38 96 1026.7
20260507034203 56 348 2.0 12.0 0.00 0.38 0.38 97 1010.2
20260507033820 56 308 2.0 5.0 0.00 0.38 0.38 97 1026.8
20260507033703 56 4 3.0 14.0 0.00 0.38 0.38 97 1009.9
20260507033318 56 305 2.0 8.0 0.00 0.38 0.38 97 1026.3
20260507032815 56 22 3.0 8.0 0.00 0.38 0.38 98 1026.3
20260507032703 56 345 6.0 14.0 0.00 0.38 0.38 98 1009.7
20260507032311 57 330 4.0 11.0 0.00 0.38 0.38 99 1026.5
20260507032204 57 0 1.0 8.0 0.00 0.38 0.38 99 1009.7
20260507031808 57 317 0.0 5.0 0.00 0.38 0.38 99 1026.1
20260507031703 57 10 3.0 8.0 0.00 0.38 0.38 99 1009.6
20260507031304 57 327 0.0 0.0 0.00 0.38 0.38 99 1026.2
20260507031204 57 14 0.0 5.0 0.00 0.38 0.38 99 1009.5
20260507030800 57 321 0.0 0.0 0.00 0.38 0.38 99 1026.1
20260507030704 57 308 0.0 3.0 0.00 0.38 0.38 99 1009.5
20260507030258 57 356 0.0 0.0 0.00 0.38 0.38 99 1026.1
20260507030205 57 344 0.0 14.0 0.00 0.38 0.38 99 1009.1
20260507025755 58 343 0.0 8.0 0.00 0.38 0.38 99 1026.1
20260507025704 58 38 5.0 14.0 0.00 0.38 0.38 99 1009.4
20260507025253 59 313 0.0 0.0 0.00 0.38 0.38 99 1025.9
20260507025203 58 5 2.0 5.0 0.00 0.38 0.38 99 1009.5
20260507024751 59 315 0.0 0.0 0.00 0.38 0.38 99 1026.0
20260507024703 58 314 0.0 0.0 0.00 0.38 0.38 99 1009.2
20260507024247 59 313 0.0 0.0 0.00 0.38 0.38 99 1025.8
20260507024203 58 317 0.0 0.0 0.00 0.38 0.38 99 1009.4
20260507023743 59 311 0.0 0.0 0.00 0.38 0.38 99 1025.7
20260507023704 58 288 0.0 0.0 0.01 0.38 0.38 99 1008.9
20260507023240 59 315 0.0 0.0 0.00 0.38 0.38 99 1025.4
20260507023204 59 321 0.0 0.0 0.02 0.38 0.38 99 1008.8
20260507022737 59 324 0.0 0.0 0.00 0.38 0.38 99 1025.7
20260507022704 59 306 0.0 0.0 0.02 0.38 0.38 99 1009.0
20260507022233 59 322 0.0 0.0 0.00 0.38 0.38 99 1026.0
20260507022203 59 322 0.0 0.0 0.03 0.38 0.38 99 1009.1
20260507021730 59 328 0.0 0.0 0.00 0.38 0.38 99 1026.0
20260507021704 59 329 0.0 0.0 0.03 0.38 0.38 99 1009.2
20260507021225 59 327 0.0 0.0 0.00 0.38 0.38 99 1026.0
20260507021204 59 316 0.0 1.0 0.05 0.38 0.38 99 1009.3
20260507020724 60 313 0.0 0.0 0.00 0.38 0.38 99 1026.2
20260507020704 60 281 0.0 0.0 0.08 0.38 0.38 99 1009.4
20260507020220 60 272 0.0 0.0 0.00 0.38 0.38 99 1026.2
20260507020204 60 272 0.0 0.0 0.09 0.38 0.38 99 1009.5
20260507015718 60 316 0.0 0.0 0.00 0.38 0.38 99 1026.0
20260507015703 61 307 1.0 3.0 0.13 0.38 0.38 99 1009.5
20260507015215 61 297 0.0 0.0 0.00 0.38 0.38 99 1026.0
20260507015204 61 274 0.0 5.0 0.13 0.38 0.38 99 1009.4
20260507014711 61 311 0.0 0.0 0.07 0.38 0.38 99 1026.0
20260507014705 61 310 0.0 1.0 0.13 0.38 0.38 99 1009.3
20260507014208 62 309 0.0 0.0 0.12 0.38 0.38 99 1026.1
20260507014204 62 302 0.0 1.0 0.13 0.38 0.38 99 1009.5
20260507013704 63 323 0.0 0.0 0.05 0.37 0.37 99 1026.2
20260507013204 63 326 0.0 0.0 0.11 0.36 0.36 99 1009.3
20260507013202 63 325 0.0 0.0 0.07 0.36 0.36 99 1026.0
20260507012704 63 282 0.0 0.0 0.11 0.36 0.36 99 1008.9
20260507012659 63 282 0.0 0.0 0.07 0.36 0.36 99 1025.6
20260507012204 63 282 0.0 0.0 0.10 0.35 0.35 99 1009.0
20260507012154 63 282 0.0 0.0 0.12 0.35 0.35 99 1025.5
20260507011652 63 278 0.0 0.0 0.28 0.35 0.35 99 1025.8
20260507011148 63 278 0.0 0.0 0.24 0.33 0.33 99 1025.8
20260507010703 64 283 0.0 0.0 0.05 0.30 0.30 98 1009.0
20260507010643 64 230 0.0 0.0 0.31 0.30 0.30 98 1025.8
20260507010139 64 308 0.0 0.0 0.24 0.29 0.29 97 1025.4
20260507005704 64 260 0.0 0.0 0.00 0.25 0.25 96 1009.0
20260507005637 64 260 0.0 0.0 0.00 0.25 0.25 96 1025.7
20260507005203 64 260 0.0 0.0 0.00 0.25 0.25 95 1008.6
20260507005133 64 260 0.0 0.0 0.00 0.25 0.25 95 1025.4
20260507004703 64 259 0.0 0.0 0.00 0.25 0.25 95 1008.6
20260507004630 64 259 0.0 0.0 0.00 0.25 0.25 95 1025.3
20260507004203 64 249 0.0 0.0 0.00 0.25 0.25 94 1008.7
20260507004127 64 248 0.0 0.0 0.00 0.25 0.25 94 1025.4
20260507003624 64 255 0.0 0.0 0.00 0.25 0.25 94 1025.1
20260507003203 64 274 0.0 0.0 0.00 0.25 0.25 94 1008.2
20260507003119 64 274 0.0 0.0 0.00 0.25 0.25 94 1024.9
20260507002704 64 290 0.0 0.0 0.00 0.25 0.25 94 1008.1
20260507002615 64 290 0.0 0.0 0.00 0.25 0.25 94 1024.8
20260507002203 64 290 0.0 0.0 0.00 0.25 0.25 95 1008.1
20260507002111 64 290 0.0 0.0 0.00 0.25 0.25 95 1024.7
20260507001705 64 290 0.0 0.0 0.00 0.25 0.25 95 1007.9
20260507001608 64 290 0.0 0.0 0.00 0.25 0.25 95 1024.6
20260507001203 64 290 0.0 0.0 0.00 0.25 0.25 95 1007.9
20260507001106 64 290 0.0 0.0 0.00 0.25 0.25 95 1024.6
20260507000703 64 290 0.0 0.0 0.00 0.25 0.25 95 1008.1
20260507000602 64 290 0.0 0.0 0.00 0.25 0.25 95 1024.8
20260507000205 64 290 0.0 0.0 0.00 0.25 0.25 94 1007.8
20260507000057 64 290 0.0 0.0 0.00 0.25 0.25 94 1024.5
20260506235703 64 290 0.0 1.0 0.00 0.25 0.25 94 1008.1
20260506235555 64 290 0.0 0.0 0.00 0.25 0.25 94 1024.8
20260506235203 64 290 0.0 1.0 0.00 0.25 0.25 94 1007.9
20260506235050 64 290 0.0 2.0 0.00 0.25 0.25 94 1024.6
20260506234704 65 280 0.0 0.0 0.00 0.25 0.25 94 1007.8
20260506234548 65 280 0.0 0.0 0.00 0.25 0.25 94 1024.5
20260506234045 65 275 0.0 0.0 0.00 0.25 0.25 93 1024.2
20260506233703 65 268 0.0 0.0 0.00 0.25 0.25 93 1007.7
20260506233542 65 267 0.0 0.0 0.00 0.25 0.25 93 1024.3
20260506233204 65 259 0.0 0.0 0.00 0.25 0.25 93 1007.7
20260506233038 65 253 0.0 0.0 0.00 0.25 0.25 93 1024.2
20260506232703 65 278 0.0 1.0 0.00 0.25 0.25 93 1007.7
20260506232534 65 278 0.0 2.0 0.00 0.25 0.25 93 1024.3
20260506232203 65 277 0.0 1.0 0.00 0.25 0.25 93 1007.8
20260506232030 65 277 0.0 0.0 0.00 0.25 0.25 93 1024.3
20260506231704 65 280 0.0 1.0 0.00 0.25 0.25 93 1007.8
20260506231528 65 274 0.0 0.0 0.00 0.25 0.25 93 1024.3
20260506231203 65 278 0.0 0.0 0.00 0.25 0.25 93 1007.6
20260506231021 65 325 0.0 0.0 0.00 0.25 0.25 93 1024.3
20260506230704 65 285 0.0 0.0 0.00 0.25 0.25 93 1007.7
20260506230516 65 289 0.0 0.0 0.00 0.25 0.25 93 1024.2
20260506230014 65 255 0.0 2.0 0.00 0.25 0.25 93 1024.0
20260506225703 65 261 0.0 5.0 0.00 0.25 0.25 93 1007.7
20260506225510 65 267 0.0 0.0 0.00 0.25 0.25 93 1024.2
20260506225006 65 267 0.0 0.0 0.00 0.25 0.25 93 1024.5
20260506224704 65 290 0.0 0.0 0.00 0.25 0.25 93 1007.9
20260506224503 65 289 0.0 0.0 0.00 0.25 0.25 93 1024.6
20260506224203 65 285 0.0 0.0 0.00 0.25 0.25 93 1007.8
20260506224000 65 284 0.0 0.0 0.00 0.25 0.25 92 1024.5
20260506223703 65 284 0.0 0.0 0.00 0.25 0.25 92 1007.7
20260506223456 66 284 0.0 0.0 0.00 0.25 0.25 92 1024.1
20260506223204 66 284 0.0 0.0 0.00 0.25 0.25 92 1007.7
20260506222953 66 284 0.0 0.0 0.00 0.25 0.25 92 1024.2
20260506222703 66 284 0.0 0.0 0.00 0.25 0.25 92 1007.6
20260506222449 66 286 0.0 0.0 0.00 0.25 0.25 92 1024.2
20260506222203 65 281 0.0 0.0 0.00 0.25 0.25 92 1007.6
20260506221946 66 278 0.0 0.0 0.00 0.25 0.25 92 1023.9
20260506221443 65 278 0.0 0.0 0.00 0.25 0.25 93 1024.3
20260506221203 65 278 0.0 0.0 0.00 0.25 0.25 93 1007.6
20260506220941 65 278 0.0 0.0 0.00 0.25 0.25 93 1024.1
20260506220437 65 278 0.0 0.0 0.00 0.25 0.25 93 1024.3
20260506220202 65 278 0.0 0.0 0.00 0.25 0.25 93 1007.7
20260506215933 65 278 0.0 0.0 0.00 0.25 0.25 93 1024.3
20260506215429 65 205 0.0 0.0 0.00 0.25 0.25 93 1024.1
20260506215204 65 257 0.0 0.0 0.00 0.25 0.25 93 1007.6
20260506214925 65 257 0.0 0.0 0.00 0.25 0.25 93 1024.3
20260506214422 65 307 0.0 0.0 0.00 0.25 0.25 93 1024.2
20260506214204 65 309 0.0 0.0 0.00 0.25 0.25 92 1007.5
20260506213920 65 273 0.0 0.0 0.00 0.25 0.25 92 1024.1
20260506213704 65 273 0.0 1.0 0.00 0.25 0.25 92 1007.4
20260506213418 65 269 0.0 2.0 0.00 0.25 0.25 91 1024.0
20260506213204 65 262 0.0 1.0 0.00 0.25 0.25 91 1007.4
20260506212915 66 253 0.0 0.0 0.00 0.25 0.25 91 1024.0
20260506212704 66 234 0.0 1.0 0.00 0.25 0.25 91 1007.1
20260506212411 66 247 0.0 2.0 0.00 0.25 0.25 91 1023.6
20260506212203 66 240 0.0 1.0 0.00 0.25 0.25 91 1007.3
20260506211906 66 241 0.0 2.0 0.00 0.25 0.25 91 1023.9
20260506211703 66 246 0.0 1.0 0.00 0.25 0.25 91 1007.1
20260506211402 66 249 0.0 2.0 0.00 0.25 0.25 91 1023.8
20260506210859 66 239 0.0 2.0 0.00 0.25 0.25 91 1023.8
20260506210703 66 259 0.0 3.0 0.00 0.25 0.25 91 1007.3
20260506210356 66 255 0.0 0.0 0.00 0.25 0.25 91 1023.8
20260506210204 66 264 0.0 3.0 0.00 0.25 0.25 90 1007.2
20260506205853 66 262 0.0 0.0 0.00 0.25 0.25 90 1024.0
20260506205703 66 262 0.0 0.0 0.00 0.25 0.25 90 1007.2
20260506205349 66 233 0.0 0.0 0.00 0.25 0.25 90 1023.7
20260506205203 66 263 0.0 1.0 0.00 0.25 0.25 91 1007.3
20260506204845 66 236 0.0 0.0 0.00 0.25 0.25 90 1023.6
20260506204703 66 236 0.0 5.0 0.00 0.25 0.25 92 1007.2
20260506204343 65 236 0.0 0.0 0.00 0.25 0.25 92 1023.7
20260506203841 65 229 1.0 5.0 0.00 0.25 0.25 92 1023.7
20260506203704 65 251 0.0 0.0 0.00 0.25 0.25 92 1007.1
20260506203338 64 252 0.0 0.0 0.00 0.25 0.25 92 1023.6
20260506203204 65 256 0.0 0.0 0.00 0.25 0.25 93 1007.1
20260506202835 65 262 0.0 0.0 0.00 0.25 0.25 93 1023.6
20260506202332 65 260 0.0 5.0 0.00 0.25 0.25 92 1023.7
20260506202203 65 258 0.0 3.0 0.00 0.25 0.25 92 1007.0
20260506201828 65 302 0.0 0.0 0.00 0.25 0.25 92 1023.7
20260506201704 65 257 0.0 1.0 0.00 0.25 0.25 92 1007.1
20260506201326 65 243 0.0 0.0 0.00 0.25 0.25 92 1023.7
20260506201205 65 243 0.0 3.0 0.00 0.25 0.25 92 1007.3
20260506200822 65 252 0.0 3.0 0.00 0.25 0.25 92 1023.6
20260506200703 65 237 1.0 5.0 0.00 0.25 0.25 92 1007.1
20260506200318 65 249 0.0 5.0 0.00 0.25 0.25 91 1023.7
20260506195814 65 234 0.0 0.0 0.00 0.25 0.25 93 1023.8
20260506195704 64 234 0.0 5.0 0.00 0.25 0.25 92 1007.2
20260506195312 64 249 0.0 3.0 0.00 0.25 0.25 92 1023.8
20260506194809 64 278 0.0 3.0 0.00 0.25 0.25 93 1023.9
20260506194305 64 256 0.0 5.0 0.00 0.25 0.25 93 1024.0
20260506194203 64 256 1.0 5.0 0.00 0.25 0.25 92 1007.5
20260506193803 64 270 0.0 2.0 0.00 0.25 0.25 93 1023.8
20260506193704 64 255 0.0 5.0 0.00 0.25 0.25 93 1007.4
20260506193259 64 229 3.0 3.0 0.00 0.25 0.25 93 1024.0
20260506193204 64 254 0.0 5.0 0.00 0.25 0.25 94 1007.4
20260506192755 64 271 0.0 5.0 0.00 0.25 0.25 93 1023.8
20260506192703 64 226 2.0 7.0 0.00 0.25 0.25 93 1007.4
20260506192253 64 206 3.0 5.0 0.00 0.25 0.25 94 1024.0
20260506192204 64 271 0.0 1.0 0.00 0.25 0.25 94 1007.5
20260506191749 64 250 0.0 0.0 0.00 0.25 0.25 95 1023.9
20260506191245 63 282 0.0 3.0 0.00 0.25 0.25 96 1024.1
20260506191204 62 238 0.0 3.0 0.01 0.25 0.25 95 1007.5
20260506190744 62 255 0.0 3.0 0.00 0.25 0.25 96 1024.5
20260506190703 62 251 0.0 3.0 0.01 0.25 0.25 97 1007.7
20260506190240 62 218 0.0 0.0 0.00 0.25 0.25 97 1024.5
20260506190204 62 271 0.0 0.0 0.01 0.25 0.25 97 1007.6
20260506185737 61 253 0.0 0.0 0.00 0.25 0.25 97 1024.3
20260506185704 61 249 0.0 3.0 0.01 0.25 0.25 97 1007.9
20260506185233 61 240 0.0 2.0 0.00 0.25 0.25 97 1024.6
20260506184731 61 206 1.0 7.0 0.00 0.25 0.25 98 1024.5
20260506184705 61 239 0.0 3.0 0.01 0.25 0.25 98 1007.8
20260506184228 61 231 0.0 3.0 0.00 0.25 0.25 98 1024.8
20260506183725 61 261 1.0 2.0 0.00 0.25 0.25 98 1024.6
20260506183704 61 272 0.0 1.0 0.01 0.25 0.25 99 1008.0
20260506183220 60 243 0.0 0.0 0.00 0.25 0.25 99 1024.7
20260506183204 60 240 0.0 5.0 0.01 0.25 0.25 99 1008.0
20260506182718 60 232 0.0 2.0 0.00 0.25 0.25 99 1024.7
20260506182703 60 253 0.0 1.0 0.01 0.25 0.25 99 1008.1
20260506182215 60 230 0.0 0.0 0.07 0.25 0.25 99 1024.9
20260506181713 60 241 0.0 3.0 0.07 0.25 0.25 99 1025.0
20260506181704 60 207 0.0 5.0 0.01 0.25 0.25 99 1008.3
20260506181210 60 235 0.0 5.0 0.00 0.24 0.24 99 1025.0
20260506181203 60 241 0.0 5.0 0.00 0.24 0.24 99 1008.3
20260506180707 60 242 0.0 5.0 0.00 0.24 0.24 99 1024.9
20260506180703 60 236 1.0 5.0 0.00 0.24 0.24 99 1008.2
20260506180204 60 223 1.0 5.0 0.00 0.24 0.24 99 1008.3
20260506175659 60 249 0.0 0.0 0.00 0.24 0.24 99 1024.8
20260506175156 60 230 0.0 2.0 0.00 0.24 0.24 99 1024.9
20260506174704 60 256 0.0 3.0 0.00 0.24 0.24 99 1008.1
20260506174654 60 248 0.0 0.0 0.00 0.24 0.24 99 1024.8
20260506174204 60 225 1.0 3.0 0.00 0.24 0.24 99 1008.2
20260506174151 60 250 0.0 3.0 0.00 0.24 0.24 99 1025.0
20260506173703 60 241 0.0 8.0 0.00 0.24 0.24 99 1008.2
20260506173649 60 249 0.0 0.0 0.00 0.24 0.24 99 1025.0
20260506173145 60 221 0.0 8.0 0.00 0.24 0.24 99 1024.8
20260506172642 60 197 0.0 2.0 0.00 0.24 0.24 99 1024.9
20260506172204 60 222 0.0 3.0 0.00 0.24 0.24 99 1008.1
20260506172139 60 245 0.0 2.0 0.00 0.24 0.24 99 1024.9
20260506171703 60 270 1.0 3.0 0.00 0.24 0.24 99 1008.1
20260506171636 60 267 0.0 0.0 0.00 0.24 0.24 99 1024.7
20260506171205 60 230 1.0 5.0 0.00 0.24 0.24 99 1008.2
20260506171134 60 209 0.0 2.0 0.00 0.24 0.24 99 1024.8
20260506170703 60 253 0.0 1.0 0.01 0.24 0.24 99 1008.2
20260506170631 60 200 0.0 2.0 0.00 0.24 0.24 99 1025.0
20260506170204 59 224 0.0 7.0 0.01 0.24 0.24 99 1008.5
20260506170123 60 232 0.0 2.0 0.00 0.24 0.24 99 1025.2
20260506165621 60 233 1.0 10.0 0.00 0.24 0.24 99 1025.0
20260506165117 60 222 0.0 5.0 0.00 0.24 0.24 99 1024.9
20260506164704 60 206 0.0 9.0 0.04 0.24 0.24 99 1008.3
20260506164614 60 189 0.0 5.0 0.00 0.24 0.24 99 1024.9
20260506164204 60 202 2.0 7.0 0.05 0.24 0.24 99 1008.2
20260506164112 60 202 4.0 5.0 0.00 0.24 0.24 99 1024.8
20260506163608 60 189 1.0 2.0 0.00 0.24 0.24 99 1024.9
20260506163203 60 200 1.0 3.0 0.07 0.24 0.24 99 1008.2
20260506163103 60 197 1.0 3.0 0.00 0.24 0.24 99 1024.9
20260506162703 60 204 0.0 5.0 0.08 0.24 0.24 99 1008.4
20260506162559 60 203 0.0 0.0 0.00 0.24 0.24 99 1025.1
20260506162204 60 194 1.0 5.0 0.09 0.24 0.24 99 1008.3
20260506162051 60 180 1.0 3.0 0.00 0.24 0.24 99 1025.0
20260506161704 60 218 1.0 5.0 0.09 0.24 0.24 99 1008.5
20260506161548 60 215 0.0 2.0 0.05 0.24 0.24 99 1025.2
20260506161040 60 197 0.0 2.0 0.12 0.24 0.24 99 1024.9
20260506160704 60 194 1.0 3.0 0.10 0.23 0.23 99 1008.3
20260506160537 60 177 1.0 3.0 0.07 0.23 0.23 99 1025.0
20260506160205 60 202 1.0 8.0 0.12 0.23 0.23 99 1008.6
20260506160034 60 195 1.0 3.0 0.05 0.22 0.22 99 1025.2
20260506155704 59 195 0.0 8.0 0.12 0.22 0.22 99 1008.9
20260506155533 59 226 0.0 8.0 0.12 0.22 0.22 99 1025.5
20260506155206 59 198 1.0 3.0 0.13 0.22 0.22 99 1009.2
20260506154704 59 216 0.0 0.0 0.12 0.20 0.20 99 1009.2
20260506153709 59 229 0.0 0.0 0.12 0.18 0.18 99 1026.5
20260506153705 59 226 0.0 0.0 0.12 0.18 0.18 99 1009.7
20260506153207 59 264 0.0 0.0 0.12 0.17 0.17 99 1026.1
20260506153204 59 223 0.0 1.0 0.11 0.17 0.17 99 1009.6
20260506152705 59 231 0.0 1.0 0.11 0.16 0.16 99 1009.5
20260506152203 59 232 0.0 1.0 0.10 0.15 0.15 99 1009.5
20260506152201 59 235 0.0 2.0 0.07 0.15 0.15 99 1026.4
20260506151703 60 219 0.0 0.0 0.11 0.15 0.15 99 1009.4
20260506151701 60 227 0.0 0.0 0.14 0.15 0.15 99 1026.1
20260506151204 60 258 0.0 0.0 0.11 0.14 0.14 99 1009.6
20260506151156 60 259 0.0 0.0 0.12 0.14 0.14 99 1026.3
20260506150704 60 239 0.0 0.0 0.11 0.13 0.13 99 1009.4
20260506150653 60 255 0.0 0.0 0.17 0.13 0.13 99 1026.2
20260506150150 60 211 0.0 0.0 0.12 0.11 0.11 99 1026.0
20260506145704 60 244 0.0 1.0 0.10 0.10 0.10 99 1009.3
20260506145647 60 224 0.0 0.0 0.12 0.10 0.10 99 1026.1
20260506145203 60 260 0.0 1.0 0.09 0.09 0.09 98 1009.3
20260506145143 60 265 0.0 0.0 0.12 0.09 0.09 98 1025.9
20260506144641 60 266 0.0 0.0 0.12 0.08 0.08 98 1026.2
20260506144138 60 221 0.0 0.0 0.05 0.07 0.07 98 1026.1
20260506143705 60 262 0.0 0.0 0.06 0.06 0.06 98 1009.3
20260506143635 60 237 0.0 0.0 0.07 0.06 0.06 98 1026.0
20260506143204 60 250 0.0 0.0 0.06 0.06 0.06 97 1009.4
20260506143133 60 247 0.0 0.0 0.07 0.06 0.06 97 1026.0
20260506142704 60 237 0.0 0.0 0.05 0.05 0.05 97 1009.1
20260506142632 60 263 0.0 0.0 0.05 0.05 0.05 97 1025.9
20260506142204 60 247 0.0 3.0 0.05 0.05 0.05 96 1009.3
20260506142129 60 229 0.0 0.0 0.12 0.05 0.05 96 1026.0
20260506141703 61 223 0.0 0.0 0.04 0.04 0.04 95 1009.4
20260506141626 61 252 0.0 0.0 0.14 0.04 0.04 96 1026.2
20260506141125 61 252 0.0 0.0 0.12 0.03 0.03 94 1025.9
20260506140622 62 266 0.0 2.0 0.12 0.02 0.02 92 1026.1
20260506140204 62 217 0.0 5.0 0.01 0.01 0.01 91 1009.3
20260506140119 62 213 0.0 0.0 0.07 0.01 0.01 91 1025.9
20260506135706 62 188 1.0 5.0 0.00 0.00 0.00 90 1009.1
20260506135616 62 180 2.0 5.0 0.00 0.00 0.00 90 1025.8
20260506135112 62 197 1.0 3.0 0.00 0.00 0.00 90 1025.9
20260506134705 63 215 0.0 5.0 0.00 0.00 0.00 89 1009.3
20260506134609 63 213 0.0 3.0 0.00 0.00 0.00 89 1026.0
20260506134204 63 197 0.0 8.0 0.00 0.00 0.00 89 1009.3
20260506134104 63 206 0.0 2.0 0.00 0.00 0.00 89 1026.1
20260506133705 63 233 1.0 7.0 0.00 0.00 0.00 88 1009.2
20260506133602 63 240 0.0 7.0 0.00 0.00 0.00 88 1025.9
20260506133203 63 237 0.0 3.0 0.00 0.00 0.00 89 1009.1
20260506133059 63 229 0.0 0.0 0.00 0.00 0.00 89 1025.8
20260506132556 63 219 1.0 3.0 0.00 0.00 0.00 88 1025.9
20260506132053 63 242 0.0 3.0 0.00 0.00 0.00 88 1026.1
20260506131703 63 249 1.0 7.0 0.00 0.00 0.00 88 1009.5
20260506131550 63 247 1.0 5.0 0.00 0.00 0.00 88 1026.2
20260506131203 63 242 0.0 7.0 0.00 0.00 0.00 88 1009.5
20260506131047 63 252 0.0 5.0 0.00 0.00 0.00 88 1026.2
20260506130543 63 229 0.0 2.0 0.00 0.00 0.00 87 1026.2
20260506130203 63 231 1.0 13.0 0.00 0.00 0.00 87 1009.5
20260506130041 63 231 0.0 7.0 0.00 0.00 0.00 87 1026.2
20260506125703 63 264 2.0 13.0 0.00 0.00 0.00 86 1009.5
20260506125539 63 269 7.0 13.0 0.00 0.00 0.00 86 1026.1
20260506125204 64 266 2.0 12.0 0.00 0.00 0.00 85 1009.7
20260506125037 64 280 0.0 8.0 0.00 0.00 0.00 85 1026.5
20260506124704 64 219 3.0 9.0 0.00 0.00 0.00 84 1009.6
20260506124534 64 216 5.0 10.0 0.00 0.00 0.00 84 1026.5
20260506124203 64 209 3.0 8.0 0.00 0.00 0.00 84 1009.6
20260506124032 64 212 2.0 8.0 0.00 0.00 0.00 84 1026.2
20260506123704 64 227 1.0 5.0 0.00 0.00 0.00 83 1009.6
20260506123530 64 230 2.0 5.0 0.00 0.00 0.00 83 1026.3
20260506123203 64 212 2.0 5.0 0.00 0.00 0.00 84 1009.5
20260506123028 64 205 3.0 5.0 0.00 0.00 0.00 84 1026.2
20260506122703 64 193 0.0 5.0 0.00 0.00 0.00 83 1009.4
20260506122524 64 242 0.0 3.0 0.00 0.00 0.00 83 1026.1
20260506122022 64 145 1.0 10.0 0.00 0.00 0.00 83 1026.2
20260506121703 64 223 2.0 7.0 0.00 0.00 0.00 83 1009.3
20260506121520 64 157 0.0 0.0 0.00 0.00 0.00 83 1026.3
20260506121015 64 196 1.0 5.0 0.00 0.00 0.00 83 1026.0
20260506120703 64 247 1.0 9.0 0.00 0.00 0.00 82 1009.3
20260506120514 64 203 1.0 7.0 0.00 0.00 0.00 83 1025.8
20260506120203 64 219 2.0 9.0 0.00 0.00 0.00 82 1009.2
20260506120011 64 181 2.0 7.0 0.00 0.00 0.00 82 1025.8
20260506115703 64 240 2.0 12.0 0.00 0.00 0.00 82 1009.1
20260506115509 65 251 0.0 11.0 0.00 0.00 0.00 82 1025.7
20260506115007 65 223 3.0 8.0 0.00 0.00 0.00 82 1025.7
20260506114504 65 242 5.0 8.0 0.00 0.00 0.00 82 1025.6
20260506114203 64 267 3.0 8.0 0.00 0.00 0.00 82 1008.9
20260506114003 64 206 4.0 7.0 0.00 0.00 0.00 82 1025.8
20260506113704 64 211 1.0 7.0 0.00 0.00 0.00 83 1008.9
20260506113500 64 241 0.0 2.0 0.00 0.00 0.00 83 1025.5
20260506113204 64 205 1.0 8.0 0.00 0.00 0.00 83 1008.9
20260506112956 64 255 0.0 5.0 0.00 0.00 0.00 83 1025.7
20260506112704 64 211 4.0 8.0 0.00 0.00 0.00 83 1009.0
20260506112454 64 269 5.0 7.0 0.00 0.00 0.00 83 1025.6
20260506111951 64 237 1.0 2.0 0.00 0.00 0.00 83 1025.5
20260506111449 64 259 0.0 3.0 0.00 0.00 0.00 83 1025.5
20260506111203 64 226 3.0 7.0 0.00 0.00 0.00 83 1008.9
20260506110945 64 211 3.0 5.0 0.00 0.00 0.00 83 1025.6
20260506110443 64 183 3.0 7.0 0.00 0.00 0.00 83 1025.7
20260506110204 64 235 1.0 5.0 0.00 0.00 0.00 83 1009.1
20260506105939 64 252 3.0 5.0 0.00 0.00 0.00 83 1025.6
20260506105436 64 205 1.0 5.0 0.00 0.00 0.00 83 1025.7
20260506104933 64 251 0.0 2.0 0.00 0.00 0.00 83 1025.6
20260506104703 64 234 1.0 3.0 0.00 0.00 0.00 83 1008.9
20260506104431 64 240 1.0 3.0 0.00 0.00 0.00 82 1025.5
20260506104205 64 234 1.0 7.0 0.00 0.00 0.00 82 1008.9
20260506103930 64 232 0.0 2.0 0.00 0.00 0.00 82 1025.4
20260506103704 64 234 0.0 7.0 0.00 0.00 0.00 83 1008.8
20260506103427 64 223 0.0 0.0 0.00 0.00 0.00 82 1025.3
20260506103203 64 211 1.0 5.0 0.00 0.00 0.00 82 1008.8
20260506102924 64 209 0.0 5.0 0.00 0.00 0.00 82 1025.4
20260506102704 64 220 2.0 7.0 0.00 0.00 0.00 82 1008.7
20260506102422 64 192 3.0 7.0 0.00 0.00 0.00 82 1025.4
20260506102203 64 195 1.0 7.0 0.00 0.00 0.00 82 1008.7
20260506101918 64 195 0.0 3.0 0.00 0.00 0.00 82 1025.4
20260506101703 64 237 1.0 7.0 0.00 0.00 0.00 82 1008.8